[[{"header":{"parameterUnit":"m.s-1","parameterCategory":1,"la1":30.2991,"la2":30.254,"lo1":-89.0895,"lo2":-89.0444,"dy":0.0017,"dx":0.0017,"nx":28,"ny":28,"refTime":"2024-05-23T21:00:00:Z","depth":0,"parameterNumber":2,"parameterNumberName":"U-component_of_WINDS"},"data":[0,0,0,0,0,0,0,0,0,0,0,0,0,0,0,0,0,0,0,0,0,0,0,0,0,0,0,0,0,0,0,0,0,0,0,0,0,0,0,0,0,0,0,0,0,0,0,0,0,0,0,0,0,0,0,0,0,0,0.746,0.7459,0,0.7382,0.7381,0.738,0.7314,0.7313,0.7312,0.7311,0.7231,0.723,0.7229,0,0,0,0,0,0,0,0,0,0,0,0,0,0.7551,0.755,0.746,0.7459,0.7458,0.7382,0.7381,0.738,0.7314,0.7313,0.7312,0.7311,0.7232,0.723,0.7228,0,0,0,0,0,0,0,0,0,0,0,0,0,0.7496,0.755,0.7461,0.7416,0.7411,0.7382,0.7381,0.738,0.7314,0.7313,0.7312,0.7311,0.7232,0.723,0.7228,0.7237,0,0,0.7222,0.7221,0,0,0,0,0,0,0,0,0.75,0.7493,0.7424,0.7419,0.7414,0.7356,0.7384,0.7332,0.7314,0.7351,0.7311,0.731,0.7274,0.7268,0.7256,0.7233,0.723,0.7221,0.722,0.7219,0.7218,0,0,0,0,0,0,0,0.7503,0.7496,0.7429,0.7423,0.7417,0.74,0.7391,0.7373,0.732,0.7348,0.7343,0.7334,0.7271,0.7258,0.7254,0.7228,0.7221,0.7219,0.7218,0.7217,0.7206,0.7207,0,0,0,0,0,0,0.7514,0.75,0.7432,0.7427,0.7455,0.7399,0.7389,0.7376,0.732,0.731,0.7335,0.7331,0.7262,0.7256,0.7251,0.7255,0.7219,0.7217,0.7216,0.7205,0.7206,0.7207,0,0,0,0,0,0,0.7516,0.7509,0.7435,0.7462,0.7451,0.7399,0.7385,0.7375,0.7362,0.731,0.73,0.7332,0.7261,0.7254,0.724,0.7251,0.7216,0.7214,0.7204,0.7205,0.7206,0.7265,0,0,0,0,0,0,0.7519,0.751,0.7513,0.7462,0.745,0.7426,0.7385,0.7374,0.7358,0.7353,0.7305,0.7296,0.726,0.7244,0.7238,0.7247,0.7212,0.7202,0.7204,0.7206,0.7262,0.7268,0.7274,0,0,0,0,0,0.7523,0.7533,0.7514,0.7506,0.7453,0.7427,0.742,0.7379,0.736,0.7362,0.7328,0.7297,0.7251,0.7243,0.7236,0.7245,0.7201,0.7204,0.7206,0.7259,0.7267,0.7273,0,0,0,0,0,0,0.7587,0.7526,0.7503,0.7498,0.7468,0.7416,0.7417,0.7389,0.7364,0.7359,0.7309,0.7299,0.729,0.7266,0.7258,0.7249,0.7222,0.7223,0.7265,0.7272,0.7278,0.7283,0.7211,0,0,0,0,0,0.76,0.7585,0.7532,0.7532,0.7518,0.7471,0.7458,0.7429,0.7396,0.7383,0.7348,0.7318,0.7296,0.7283,0.726,0.7258,0.7246,0.7261,0.7267,0.7272,0.7273,0.7268,0.7273,0.7214,0.7214,0.7214,0,0,0.7628,0.7593,0.7586,0.7544,0.7518,0.7502,0.7461,0.7446,0.7434,0.7381,0.7365,0.7339,0.7301,0.7293,0.7287,0.7272,0.7287,0.7275,0.7279,0.7277,0.7271,0.7276,0.7281,0.7216,0.7216,0.7215,0,0,0.767,0.7643,0.7638,0.7612,0.7573,0.754,0.754,0.7491,0.7472,0.7455,0.7414,0.7399,0.7363,0.7337,0.7319,0.735,0.732,0.7344,0.7375,0.7371,0.7375,0.7379,0.7388,0.7392,0.7346,0.7346,0.7346,0,0.7709,0.7684,0.764,0.7627,0.7609,0.756,0.7555,0.7532,0.7487,0.7476,0.746,0.7412,0.7384,0.7367,0.7375,0.7363,0.7359,0.7349,0.7378,0.7382,0.7385,0.7393,0.7396,0.7349,0.7349,0.7348,0.7348,0,0.7733,0.7716,0.7718,0.7675,0.7657,0.7649,0.7602,0.759,0.7562,0.7531,0.7514,0.7478,0.7446,0.744,0.7413,0.742,0.7411,0.7388,0.7359,0.7394,0.7401,0.7403,0.7353,0.7352,0.7351,0.735,0,0,0.7813,0.7745,0.7746,0.7725,0.7677,0.7663,0.7651,0.762,0.7609,0.758,0.7568,0.7538,0.7515,0.7495,0.7464,0.7461,0.7485,0.7437,0.7435,0.7446,0.7487,0.7504,0.7509,0.7465,0.7465,0.7466,0.749,0,0.7845,0.7822,0.7781,0.7771,0.7753,0.7706,0.7696,0.7665,0.7636,0.7617,0.7584,0.7563,0.7536,0.7523,0.7518,0.7483,0.7492,0.7481,0.7452,0.7451,0.7461,0.7512,0.753,0.7555,0.7492,0.7493,0.7493,0,0.788,0.7853,0.784,0.7791,0.7783,0.7774,0.7741,0.7724,0.7687,0.7666,0.7643,0.7609,0.7594,0.7569,0.7546,0.7539,0.7525,0.7506,0.7506,0.75,0.7473,0.7506,0.7562,0.7565,0.7497,0.7497,0.7496,0,0.7937,0.7897,0.7884,0.7867,0.7811,0.7806,0.7782,0.7745,0.7728,0.7699,0.7687,0.7657,0.764,0.7617,0.7576,0.7562,0.7557,0.7529,0.7537,0.7538,0.7537,0.7538,0.759,0.7531,0.7531,0.7531,0.7531,0,0.7977,0.797,0.7908,0.79,0.7891,0.7844,0.7836,0.7808,0.7775,0.776,0.7718,0.7704,0.7651,0.7631,0.7599,0.7583,0.7577,0.7558,0.7549,0.7561,0.7563,0.755,0.7547,0.7532,0.7532,0.7532,0.7532,0,0.8038,0.7997,0.7979,0.7926,0.7913,0.7909,0.7864,0.7853,0.7822,0.7803,0.7795,0.7746,0.772,0.7676,0.7638,0.7616,0.7606,0.7593,0.7619,0.7613,0.7623,0.7622,0.7667,0.767,0.7612,0.7613,0.7613,0,0.8065,0.8059,0.8006,0.7993,0.797,0.795,0.7932,0.7886,0.7869,0.7826,0.782,0.7791,0.7765,0.7725,0.7685,0.7656,0.764,0.7658,0.7635,0.7646,0.7638,0.7638,0.7636,0.7662,0.7663,0.7664,0.7665,0,0.8117,0.8097,0.8073,0.8041,0.8021,0.7994,0.7965,0.7956,0.7903,0.7886,0.7859,0.7839,0.7799,0.777,0.7734,0.7709,0.7677,0.7672,0.7672,0.7683,0.7698,0.7688,0.7631,0.7671,0.767,0.767,0.767,0.7669,0.8161,0.8152,0.8113,0.8088,0.8061,0.8034,0.8021,0.7988,0.7964,0.7928,0.7902,0.7876,0.7838,0.7787,0.7763,0.7742,0.7728,0.7728,0.7728,0.7729,0.7732,0.7702,0.7735,0.7735,0.7735,0.7735,0.7734,0,0.8209,0.8181,0.8158,0.8118,0.8098,0.807,0.8036,0.802,0.7998,0.7965,0.794,0.7908,0.7879,0.7837,0.7805,0.7796,0.778,0.7789,0.7788,0.7782,0.7748,0.775,0.7801,0.7801,0.7801,0.7801,0.7801,0.7801,0.8231,0.8215,0.8189,0.8159,0.8131,0.8105,0.8088,0.8063,0.8036,0.8002,0.7978,0.795,0.7913,0.7877,0.7849,0.7838,0.7827,0.7839,0.7823,0.7791,0.7785,0.7779,0.7781,0.7838,0.7838,0.7859,0.7859,0.7859]},{"header":{"parameterUnit":"m.s-1","parameterCategory":1,"la1":30.2991,"la2":30.254,"lo1":-89.0895,"lo2":-89.0444,"dy":0.0017,"dx":0.0017,"nx":28,"ny":28,"refTime":"2024-05-23T21:00:00:Z","depth":0,"parameterNumber":3,"parameterNumberName":"V-component_of_WINDS"},"data":[0,0,0,0,0,0,0,0,0,0,0,0,0,0,0,0,0,0,0,0,0,0,0,0,0,0,0,0,0,0,0,0,0,0,0,0,0,0,0,0,0,0,0,0,0,0,0,0,0,0,0,0,0,0,0,0,0,0,5.3165,5.3166,0,5.3234,5.3235,5.3235,5.3191,5.3189,5.3187,5.3185,5.3249,5.3253,5.3256,0,0,0,0,0,0,0,0,0,0,0,0,0,5.299,5.2993,5.3165,5.3166,5.3167,5.3234,5.3235,5.3236,5.3191,5.3189,5.3186,5.3184,5.3248,5.3252,5.3257,0,0,0,0,0,0,0,0,0,0,0,0,0,5.3063,5.2995,5.3165,5.3153,5.3153,5.3234,5.3235,5.3236,5.3192,5.3189,5.3186,5.3183,5.3247,5.3252,5.3257,5.3352,0,0,5.3274,5.3276,0,0,0,0,0,0,0,0,5.3059,5.3069,5.3154,5.3154,5.3154,5.3201,5.3196,5.3274,5.3193,5.3177,5.3185,5.3181,5.3235,5.3241,5.3261,5.3355,5.3357,5.3274,5.3277,5.328,5.3281,0,0,0,0,0,0,0,5.3054,5.3066,5.3192,5.3155,5.3155,5.3142,5.3149,5.3211,5.3222,5.3178,5.3175,5.3184,5.3234,5.3256,5.3262,5.3358,5.3274,5.3279,5.3282,5.3284,5.3532,5.3535,0,0,0,0,0,0,5.3051,5.3062,5.319,5.3194,5.3098,5.3148,5.3156,5.3189,5.3221,5.3224,5.3187,5.3182,5.3248,5.3256,5.3264,5.3376,5.328,5.3285,5.3288,5.3529,5.3533,5.3536,0,0,0,0,0,0,5.3047,5.3063,5.3187,5.3128,5.3143,5.3154,5.3192,5.3192,5.3213,5.3228,5.3229,5.3207,5.3246,5.3256,5.333,5.3378,5.3287,5.3292,5.3525,5.353,5.3534,5.3602,0,0,0,0,0,0,5.3042,5.3062,5.3099,5.3129,5.3146,5.3255,5.3195,5.3195,5.3223,5.3217,5.3247,5.3249,5.3244,5.3323,5.3336,5.3384,5.3296,5.352,5.3527,5.3533,5.3595,5.3609,5.362,0,0,0,0,0,5.3036,5.3114,5.3101,5.3117,5.3194,5.3258,5.3267,5.3262,5.3227,5.3264,5.3273,5.3248,5.3371,5.333,5.3345,5.3395,5.3517,5.3525,5.3532,5.359,5.3606,5.3619,0,0,0,0,0,0,5.3088,5.3118,5.3104,5.3194,5.3224,5.325,5.3296,5.3279,5.3318,5.331,5.33,5.3307,5.3385,5.3397,5.3352,5.3488,5.3438,5.3449,5.3477,5.3492,5.3504,5.3499,5.3301,0,0,0,0,0,5.311,5.3162,5.3184,5.3262,5.3278,5.3285,5.3312,5.3306,5.3335,5.3347,5.3362,5.339,5.3434,5.3464,5.3506,5.3597,5.3602,5.3638,5.3651,5.366,5.367,5.3718,5.3734,5.3561,5.3561,5.3561,0,0,5.3156,5.3179,5.3212,5.3273,5.3295,5.3347,5.3295,5.3352,5.339,5.3355,5.3426,5.3438,5.3468,5.3551,5.3588,5.3564,5.3719,5.367,5.3678,5.3682,5.3727,5.3744,5.3758,5.3566,5.3565,5.3564,0,0,5.3266,5.3289,5.3356,5.338,5.3415,5.3419,5.3435,5.3464,5.3471,5.3543,5.3517,5.356,5.3638,5.3661,5.3682,5.38,5.3778,5.3814,5.3877,5.3924,5.3938,5.395,5.3992,5.4007,5.3823,5.3823,5.3823,0,5.3318,5.3397,5.3392,5.3452,5.3478,5.3451,5.3517,5.354,5.3586,5.3604,5.3576,5.3673,5.3691,5.3779,5.3808,5.3826,5.3843,5.3811,5.3937,5.3949,5.396,5.3999,5.4015,5.3827,5.3827,5.3827,5.3826,0,5.3459,5.3514,5.3563,5.3611,5.3643,5.3706,5.3708,5.3741,5.3732,5.3738,5.3811,5.3832,5.3877,5.3897,5.3888,5.3983,5.3967,5.3938,5.3888,5.3981,5.4018,5.4033,5.3833,5.3832,5.3831,5.383,0,0,5.3604,5.3648,5.3666,5.3687,5.3723,5.3765,5.3825,5.3871,5.39,5.3932,5.3981,5.4047,5.4021,5.4045,5.4038,5.4079,5.4171,5.4045,5.4046,5.4068,5.4276,5.4297,5.4315,5.4156,5.4159,5.4161,5.4273,0,5.3716,5.3824,5.3821,5.392,5.397,5.3944,5.3997,5.4023,5.4031,5.4072,5.4079,5.4126,5.4089,5.4103,5.4143,5.4151,5.4212,5.4143,5.42,5.4202,5.4194,5.4334,5.4357,5.4462,5.4288,5.429,5.4292,0,5.3861,5.39,5.4006,5.4034,5.4055,5.4103,5.4145,5.4185,5.4214,5.4216,5.4244,5.423,5.4289,5.4238,5.4318,5.4271,5.4294,5.4301,5.4305,5.431,5.4253,5.4343,5.4495,5.4511,5.4315,5.4313,5.4311,0,5.3955,5.4034,5.4108,5.4126,5.4162,5.4196,5.4211,5.4238,5.4265,5.4301,5.4319,5.436,5.4383,5.4414,5.4411,5.4374,5.4492,5.4441,5.4494,5.4495,5.452,5.4519,5.4679,5.4536,5.4536,5.4535,5.4535,0,5.4081,5.4146,5.4151,5.4196,5.4267,5.4262,5.4332,5.4344,5.4368,5.4413,5.4392,5.4435,5.4428,5.447,5.4467,5.4533,5.4544,5.4546,5.4544,5.4548,5.4548,5.4563,5.4555,5.4539,5.4538,5.4538,5.4537,0,5.4199,5.4205,5.4283,5.431,5.4318,5.437,5.4392,5.4434,5.4439,5.4497,5.451,5.4518,5.4566,5.4566,5.462,5.4618,5.47,5.469,5.4691,5.4688,5.4742,5.4737,5.4917,5.494,5.4782,5.4784,5.4785,0,5.4278,5.4328,5.4362,5.4392,5.441,5.4458,5.4487,5.4483,5.4513,5.455,5.4587,5.4633,5.4671,5.4748,5.4758,5.4799,5.4789,5.485,5.4795,5.4797,5.479,5.4787,5.4792,5.486,5.4862,5.4863,5.4865,0,5.4419,5.4419,5.4463,5.4508,5.4543,5.4578,5.4609,5.4634,5.4633,5.4668,5.4719,5.4747,5.4804,5.485,5.4889,5.4903,5.4884,5.4882,5.4896,5.49,5.4899,5.49,5.4719,5.4878,5.4876,5.4875,5.4875,5.4874,5.452,5.4563,5.4593,5.4642,5.4666,5.4696,5.4737,5.4748,5.479,5.4837,5.4831,5.4887,5.4913,5.4965,5.4982,5.5024,5.5002,5.5024,5.5029,5.5034,5.504,5.4892,5.5031,5.503,5.503,5.503,5.503,0,5.4659,5.4677,5.4723,5.4769,5.4807,5.4787,5.4821,5.4853,5.4903,5.493,5.4968,5.5025,5.5069,5.5082,5.5124,5.5155,5.5147,5.5166,5.5164,5.5167,5.5057,5.504,5.5172,5.5172,5.5172,5.5172,5.5172,5.5172,5.4736,5.4808,5.4812,5.4894,5.4911,5.4968,5.4988,5.5015,5.5037,5.5102,5.514,5.5149,5.517,5.5213,5.5253,5.5255,5.5271,5.5294,5.5293,5.5189,5.5175,5.5162,5.5146,5.5298,5.5298,5.54,5.5401,5.5402]}]]